Flag Weather past 2 weeks in Krems, Lower Austria, Austria

Now
37 °F

Passing clouds.


Feels Like: 29 °F
Forecast: 29 / 38 °F
Wind: 14 mph from East

Location: Tulln Airport

Current Time: Nov 27, 2014 at 6:17:51 PM

Latest Report: Nov 27, 2014 at 5:50 PM


Visibility: 8 mi

Pressure: 30.01 "Hg

Humidity: 75%

Dew point: 30 °F

Location of KremsLocation

Historic Weather in Krems — Graph

°F

Krems temperature yesterday

Maximum temperature yesterday: 41 °F (at 10:50 AM)
Minimum temperature yesterday: 39 °F (at 5:50 AM)
Average temperature yesterday: 40 °F

Past Weeks' High & Low Weather Summary

 TemperatureHumidityPressure
High64 °F (Nov 13, 2:50 PM)100% (Nov 13, 8:50 PM)30.36 "Hg (Nov 13, 8:50 PM)
Low37 °F (Nov 27, 4:50 AM)50% (Nov 15, 6:50 PM)29.59 "Hg (Nov 16, 6:50 AM)
Average46 °F85%30.04 "Hg
* Reported Nov 12 4:50 PM — Nov 27 4:50 PM, Krems, Weather by CustomWeather, © 2014

Note: Actual official high and low records may vary slightly from our data, if they occured in-between our weather recording intervals... More about our weather records

Advertising

Krems weather history for previous 24 hours

 ConditionsComfort  
Time TempWeatherWind HumidityBarometerVisibility
4:50 PM
Nov 27
37 °FPassing clouds.14 mph75%30.01 "Hg8 mi
3:50 PM37 °FPartly sunny.16 mph70%29.98 "Hg9 mi
2:50 PM39 °FPartly sunny.15 mph70%29.98 "Hg9 mi
1:50 PM39 °FPartly sunny.15 mph65%29.98 "Hg9 mi
12:50 PM39 °FPartly sunny.16 mph65%30.01 "Hg9 mi
11:50 AM39 °FPartly sunny.21 mph65%30.01 "Hg9 mi
10:50 AM37 °FPartly sunny.15 mph70%30.04 "Hg9 mi
9:50 AM37 °FPartly sunny.15 mph70%30.04 "Hg7 mi
8:50 AM37 °FPartly sunny.21 mph70%30.04 "Hg7 mi
7:50 AM37 °FPartly sunny.22 mph70%30.01 "Hg7 mi
6:50 AM37 °FPartly cloudy.16 mph75%30.01 "Hg6 mi
5:50 AM37 °FPassing clouds.13 mph81%30.01 "Hg5 mi
4:50 AM37 °FPartly cloudy.13 mph81%30.01 "Hg5 mi
9:50 PM
Nov 26
39 °FPassing clouds.14 mph81%30.12 "Hg4 mi
8:50 PM39 °FPassing clouds.13 mph81%30.12 "Hg4 mi
7:50 PM39 °FPassing clouds.14 mph81%30.12 "Hg4 mi
6:50 PM39 °FPassing clouds.12 mph81%30.12 "Hg4 mi
Weather by CustomWeather, © 2014

See weather overviewHow to use our weather pages